Location: Newark
(49.6569°N, 1.5194°E)
Time: 03:52:10
(UTC+00:00)

OTV 5 (USA 277) - Visible Passes

Search period start: 18 October 2019 00:00
Search period end: 28 October 2019 00:00
Orbit: 310 x 324 km, 54.5° (Epoch: 08 October)

Date Brightness Start Highest point End Pass type
(mag) Time Alt. Az. Time Alt. Az. Time Alt. Az.
18 Oct ? 04:36:01 71° S 04:36:01 71° S 04:38:39 10° SE visible
19 Oct ? 04:50:31 32° SSW 04:50:31 32° SSW 04:52:53 10° SSE visible
20 Oct ? 05:05:08 15° SW 05:05:08 15° SW 05:06:27 10° S visible
